EW2345 Weather Reports


Display with metric or nautical units.
time (UTC)temp
F
wind
direction
speed
MPH
gust
MPH
rain 1hr
in
rain 24hr
in
rain mn
in
humidity
%
barometer
mb
20260903171504 89 236 7.0 12.0 0.00 0.00 0.00 43 1019.6
20260903171002 89 229 7.0 12.0 0.00 0.00 0.00 43 1019.6
20260903170505 90 245 7.0 13.0 0.00 0.00 0.00 43 1019.6
20260903170004 90 236 9.0 14.0 0.00 0.00 0.00 44 1019.6
20260903165002 90 250 6.0 13.0 0.00 0.00 0.00 43 1019.4
20260903164504 91 236 7.0 14.0 0.00 0.00 0.00 43 1019.3
20260903164004 91 232 6.0 12.0 0.00 0.00 0.00 41 1019.3
20260903162504 91 236 7.0 12.0 0.00 0.00 0.00 40 1019.3
20260903161002 93 242 8.0 15.0 0.00 0.00 0.00 38 1019.4
20260903160503 93 234 8.0 14.0 0.00 0.00 0.00 38 1019.4
20260903160003 93 252 7.0 16.0 0.00 0.00 0.00 38 1019.4
20260903155503 93 246 7.0 14.0 0.00 0.00 0.00 38 1019.4
20260903155002 93 238 8.0 15.0 0.00 0.00 0.00 39 1019.3
20260903154503 93 267 9.0 15.0 0.00 0.00 0.00 37 1019.4
20260903154003 94 214 6.0 20.0 0.00 0.00 0.00 36 1019.4
20260903153503 94 235 8.0 15.0 0.00 0.00 0.00 36 1019.4
20260903152502 94 239 7.0 16.0 0.00 0.00 0.00 38 1019.5
20260903152002 94 254 7.0 16.0 0.00 0.00 0.00 37 1019.5
20260903151504 94 245 9.0 16.0 0.00 0.00 0.00 35 1019.5
20260903151003 95 238 9.0 20.0 0.00 0.00 0.00 35 1019.6
20260903150503 95 252 7.0 18.0 0.00 0.00 0.00 37 1019.6
20260903150005 95 246 9.0 15.0 0.00 0.00 0.00 36 1019.6
20260903145504 95 243 8.0 13.0 0.00 0.00 0.00 37 1019.7
20260903145004 95 244 11.0 20.0 0.00 0.00 0.00 35 1019.7
20260903144502 95 243 7.0 15.0 0.00 0.00 0.00 35 1019.7
20260903144003 96 232 7.0 13.0 0.00 0.00 0.00 34 1019.7
20260903143005 96 241 7.0 13.0 0.00 0.00 0.00 35 1019.7
20260903142504 96 232 4.0 12.0 0.00 0.00 0.00 36 1019.7
20260903142004 96 255 7.0 12.0 0.00 0.00 0.00 33 1019.8
20260903141504 96 243 6.0 14.0 0.00 0.00 0.00 34 1019.8
20260903141004 95 252 7.0 12.0 0.00 0.00 0.00 34 1019.9
20260903140505 95 259 6.0 12.0 0.00 0.00 0.00 35 1019.9
20260903140005 95 223 5.0 12.0 0.00 0.00 0.00 34 1020.0
20260903135504 96 262 6.0 12.0 0.00 0.00 0.00 35 1020.1
20260903135004 95 235 6.0 12.0 0.00 0.00 0.00 34 1020.1
20260903134504 95 236 8.0 14.0 0.00 0.00 0.00 34 1020.1
20260903134004 95 239 6.0 12.0 0.00 0.00 0.00 34 1020.3
20260903133504 95 247 4.0 9.0 0.00 0.00 0.00 33 1020.3
20260903133004 95 244 2.0 9.0 0.00 0.00 0.00 32 1020.3
20260903132504 95 303 3.0 8.0 0.00 0.00 0.00 31 1020.3
20260903132003 95 253 3.0 10.0 0.00 0.00 0.00 32 1020.2
20260903131504 95 260 3.0 7.0 0.00 0.00 0.00 32 1020.2
20260903131003 94 255 6.0 10.0 0.00 0.00 0.00 32 1020.3
20260903130503 94 305 3.0 9.0 0.00 0.00 0.00 32 1020.3
20260903130005 94 273 3.0 9.0 0.00 0.00 0.00 33 1020.3
20260903125504 94 318 5.0 9.0 0.00 0.00 0.00 33 1020.4
20260903125003 94 260 3.0 9.0 0.00 0.00 0.00 33 1020.3
20260903124504 93 336 5.0 9.0 0.00 0.00 0.00 32 1020.3
20260903124003 93 244 4.0 9.0 0.00 0.00 0.00 34 1020.3
20260903123504 93 263 2.0 8.0 0.00 0.00 0.00 32 1020.3
20260903121504 94 252 3.0 7.0 0.00 0.00 0.00 36 1020.5
20260903121003 94 281 4.0 9.0 0.00 0.00 0.00 35 1020.7
20260903120505 93 277 3.0 7.0 0.00 0.00 0.00 33 1020.7
20260903115003 91 168 0.0 3.0 0.00 0.00 0.00 36 1021.0
20260903114504 90 168 0.0 3.0 0.00 0.00 0.00 41 1021.1
20260903114002 90 169 2.0 5.0 0.00 0.00 0.00 38 1021.2
20260903113504 90 169 0.0 2.0 0.00 0.00 0.00 39 1021.3
20260903112503 89 169 0.0 3.0 0.00 0.00 0.00 35 1021.4
20260903112003 89 169 0.0 3.0 0.00 0.00 0.00 39 1021.3
20260903111503 88 169 1.0 3.0 0.00 0.00 0.00 42 1021.4
20260903110005 86 169 1.0 3.0 0.00 0.00 0.00 46 1021.5
20260903105504 86 169 1.0 3.0 0.00 0.00 0.00 47 1021.6
20260903105003 84 169 0.0 2.0 0.00 0.00 0.00 48 1021.6
20260903104503 84 169 1.0 3.0 0.00 0.00 0.00 47 1021.6
20260903104005 83 169 0.0 1.0 0.00 0.00 0.00 50 1021.7
20260903103504 83 169 0.0 3.0 0.00 0.00 0.00 52 1021.6
20260903103005 82 171 0.0 3.0 0.00 0.00 0.00 52 1021.6
20260903102503 82 174 0.0 1.0 0.00 0.00 0.00 52 1021.7
20260903102003 81 174 0.0 2.0 0.00 0.00 0.00 54 1021.7
20260903101504 81 174 0.0 2.0 0.00 0.00 0.00 54 1021.8
20260903101004 80 174 1.0 3.0 0.00 0.00 0.00 56 1021.7
20260903100503 79 180 0.0 2.0 0.00 0.00 0.00 55 1021.7
20260903100004 79 182 0.0 2.0 0.00 0.00 0.00 56 1021.7
20260903095504 79 182 0.0 1.0 0.00 0.00 0.00 56 1021.8
20260903095004 78 182 0.0 1.0 0.00 0.00 0.00 57 1021.7
20260903094503 78 182 0.0 2.0 0.00 0.00 0.00 55 1021.7
20260903094003 77 182 0.0 0.0 0.00 0.00 0.00 58 1021.8
20260903093503 77 182 0.0 0.0 0.00 0.00 0.00 58 1021.8
20260903092503 78 182 0.0 3.0 0.00 0.00 0.00 54 1021.7
20260903092004 77 182 1.0 3.0 0.00 0.00 0.00 57 1021.7
20260903091504 77 182 1.0 5.0 0.00 0.00 0.00 57 1021.6
20260903091003 75 167 2.0 5.0 0.00 0.00 0.00 58 1021.7
20260903090504 74 40 1.0 2.0 0.00 0.00 0.00 65 1021.7
20260903090005 73 40 0.0 0.0 0.00 0.00 0.00 65 1021.7
20260903085503 72 40 0.0 0.0 0.00 0.00 0.00 65 1021.7
20260903085004 71 40 0.0 0.0 0.00 0.00 0.00 66 1021.7
20260903084503 70 40 0.0 0.0 0.00 0.00 0.00 69 1021.8
20260903083005 69 40 0.0 0.0 0.00 0.00 0.00 69 1021.8
20260903082503 67 40 0.0 0.0 0.00 0.00 0.00 72 1021.9
20260903082003 67 40 0.0 0.0 0.00 0.00 0.00 72 1021.9
20260903081504 66 40 0.0 0.0 0.00 0.00 0.00 71 1021.9
20260903081004 66 40 0.0 0.0 0.00 0.00 0.00 73 1021.9
20260903080004 65 40 0.0 0.0 0.00 0.00 0.00 72 1021.9
20260903075003 65 40 0.0 3.0 0.00 0.00 0.00 73 1022.1
20260903074504 64 40 0.0 0.0 0.00 0.00 0.00 74 1022.1
20260903074004 63 40 0.0 0.0 0.00 0.00 0.00 75 1022.2
20260903073503 63 40 0.0 0.0 0.00 0.00 0.00 77 1022.2
20260903073004 62 40 0.0 0.0 0.00 0.00 0.00 76 1022.2
20260903072504 62 40 0.0 2.0 0.00 0.00 0.00 77 1022.1
20260903072003 62 40 0.0 2.0 0.00 0.00 0.00 78 1022.1
20260903071504 61 40 0.0 0.0 0.00 0.00 0.00 79 1022.0
20260903071003 61 40 0.0 0.0 0.00 0.00 0.00 80 1022.1
20260903070503 60 40 0.0 0.0 0.00 0.00 0.00 81 1022.1
20260903070005 59 40 0.0 0.0 0.00 0.00 0.00 82 1022.0
20260903065504 59 40 0.0 0.0 0.00 0.00 0.00 83 1022.0
20260903064503 58 40 2.0 5.0 0.00 0.00 0.00 83 1022.1
20260903064002 58 40 1.0 5.0 0.00 0.00 0.00 83 1022.0
20260903063005 57 40 1.0 5.0 0.00 0.00 0.00 83 1021.8
20260903062503 57 40 2.0 5.0 0.00 0.00 0.00 83 1021.8
20260903062004 57 40 2.0 3.0 0.00 0.00 0.00 83 1021.7
20260903061504 57 40 3.0 6.0 0.00 0.00 0.00 83 1021.7
20260903061004 57 42 2.0 6.0 0.00 0.00 0.00 83 1021.8
20260903060505 57 42 0.0 0.0 0.00 0.00 0.00 83 1021.7
20260903060005 57 42 0.0 0.0 0.00 0.00 0.00 83 1021.6
20260903055504 57 42 0.0 0.0 0.00 0.00 0.00 82 1021.6
20260903055004 57 42 0.0 0.0 0.00 0.00 0.00 82 1021.5
20260903054504 57 42 0.0 0.0 0.00 0.00 0.00 82 1021.5
20260903054003 57 42 0.0 0.0 0.00 0.00 0.00 82 1021.5
20260903053502 57 42 0.0 0.0 0.00 0.00 0.00 82 1021.4
20260903053004 57 42 1.0 3.0 0.00 0.00 0.00 82 1021.4
20260903052503 57 42 1.0 3.0 0.00 0.00 0.00 82 1021.3
20260903052004 57 42 0.0 3.0 0.00 0.00 0.00 82 1021.4
20260903051504 57 42 2.0 3.0 0.00 0.00 0.00 82 1021.3
20260903051002 57 42 3.0 6.0 0.00 0.00 0.00 82 1021.3
20260903050503 58 42 1.0 3.0 0.00 0.00 0.00 81 1021.3
20260903045003 58 42 1.0 3.0 0.00 0.00 0.00 81 1021.4
20260903044504 58 42 2.0 3.0 0.00 0.00 0.00 82 1021.4
20260903044003 58 42 1.0 3.0 0.00 0.00 0.00 82 1021.3
20260903043503 58 42 1.0 2.0 0.00 0.00 0.00 82 1021.3
20260903043005 58 41 1.0 3.0 0.00 0.00 0.00 81 1021.3
20260903041504 58 41 0.0 0.0 0.00 0.00 0.00 80 1021.3
20260903040504 58 41 0.0 0.0 0.00 0.00 0.00 80 1021.3
20260903040004 58 41 0.0 0.0 0.00 0.00 0.00 80 1021.2
20260903035504 58 41 0.0 1.0 0.00 0.00 0.00 80 1021.3
20260903035004 58 41 2.0 3.0 0.00 0.00 0.00 80 1021.3
20260903034503 58 41 0.0 0.0 0.00 0.00 0.00 80 1021.4
20260903034003 59 41 0.0 3.0 0.00 0.00 0.00 80 1021.4
20260903033503 59 41 2.0 3.0 0.00 0.00 0.00 79 1021.4
20260903033004 59 41 0.0 2.0 0.00 0.00 0.00 78 1021.4
20260903032503 59 41 0.0 0.0 0.00 0.00 0.00 78 1021.4
20260903032004 59 41 0.0 2.0 0.00 0.00 0.00 78 1021.4
20260903031005 59 41 0.0 3.0 0.00 0.00 0.00 78 1021.4
20260903030503 59 41 0.0 0.0 0.00 0.00 0.00 77 1021.4
20260903030005 59 41 0.0 0.0 0.00 0.00 0.00 77 1021.5
20260903025503 60 41 0.0 0.0 0.00 0.00 0.00 77 1021.5
20260903025004 60 41 0.0 0.0 0.00 0.00 0.00 76 1021.5
20260903024504 60 41 0.0 0.0 0.00 0.00 0.00 77 1021.5
20260903024004 60 41 0.0 0.0 0.00 0.00 0.00 76 1021.5
20260903023503 60 41 0.0 0.0 0.00 0.00 0.00 77 1021.5
20260903023004 60 41 0.0 0.0 0.00 0.00 0.00 77 1021.6
20260903022503 60 41 0.0 0.0 0.00 0.00 0.00 77 1021.5
20260903022004 60 41 0.0 1.0 0.00 0.00 0.00 77 1021.5
20260903021004 60 41 2.0 5.0 0.00 0.00 0.00 75 1021.5
20260903020503 60 41 2.0 3.0 0.00 0.00 0.00 75 1021.5
20260903020004 61 41 0.0 3.0 0.00 0.00 0.00 75 1021.5
20260903015503 61 41 1.0 3.0 0.00 0.00 0.00 74 1021.6
20260903015003 61 41 1.0 3.0 0.00 0.00 0.00 74 1021.6
20260903014503 61 41 1.0 5.0 0.00 0.00 0.00 74 1021.6
20260903014004 61 41 0.0 0.0 0.00 0.00 0.00 74 1021.7
20260903013504 61 41 0.0 0.0 0.00 0.00 0.00 74 1021.7
20260903013004 61 41 0.0 2.0 0.00 0.00 0.00 73 1021.8
20260903012504 61 41 1.0 5.0 0.00 0.00 0.00 73 1021.8
20260903012003 62 42 1.0 5.0 0.00 0.00 0.00 73 1021.8
20260903011503 62 42 0.0 0.0 0.00 0.00 0.00 72 1021.8
20260903011003 62 42 0.0 0.0 0.00 0.00 0.00 72 1021.8
20260903010005 62 42 0.0 0.0 0.00 0.00 0.00 71 1021.9
20260903005504 62 42 0.0 0.0 0.00 0.00 0.00 71 1021.9
20260903004504 63 42 1.0 3.0 0.00 0.00 0.00 70 1021.9
20260903004003 63 42 0.0 2.0 0.00 0.00 0.00 69 1021.9
20260903003503 63 42 0.0 0.0 0.00 0.00 0.00 69 1021.9
20260903003005 63 42 0.0 0.0 0.00 0.00 0.00 69 1021.9
20260903002003 63 42 0.0 0.0 0.00 0.00 0.00 69 1021.9
20260903001503 64 42 0.0 0.0 0.00 0.00 0.00 68 1021.9
20260903001003 64 42 0.0 0.0 0.00 0.00 0.00 68 1022.0
20260903000503 64 42 0.0 0.0 0.00 0.00 0.00 68 1022.0
20260903000004 64 42 0.0 0.0 0.00 0.00 0.00 67 1022.0
20260902235004 65 42 0.0 0.0 0.00 0.00 0.00 67 1022.1
20260902234504 65 42 0.0 0.0 0.00 0.00 0.00 66 1022.1
20260902234003 65 42 0.0 0.0 0.00 0.00 0.00 66 1022.1
20260902233503 65 42 0.0 0.0 0.00 0.00 0.00 66 1022.0
20260902233005 65 42 0.0 0.0 0.00 0.00 0.00 65 1022.0
20260902232503 65 42 0.0 0.0 0.00 0.00 0.00 65 1022.0
20260902232004 66 42 0.0 0.0 0.00 0.00 0.00 65 1022.0
20260902231504 66 42 0.0 0.0 0.00 0.00 0.00 65 1022.0
20260902231003 66 42 0.0 0.0 0.00 0.00 0.00 64 1021.9
20260902230504 66 42 0.0 0.0 0.00 0.00 0.00 64 1021.9
20260902230004 67 42 0.0 0.0 0.00 0.00 0.00 64 1021.9
20260902225504 67 42 0.0 0.0 0.00 0.00 0.00 63 1021.9
20260902225003 67 42 0.0 0.0 0.00 0.00 0.00 63 1021.9
20260902224004 67 42 0.0 0.0 0.00 0.00 0.00 62 1021.8
20260902223005 68 42 0.0 0.0 0.00 0.00 0.00 63 1021.8
20260902222504 68 42 0.0 0.0 0.00 0.00 0.00 62 1021.8
20260902222004 68 42 0.0 0.0 0.00 0.00 0.00 62 1021.9
20260902221503 68 42 0.0 0.0 0.00 0.00 0.00 62 1021.9
20260902221004 68 42 0.0 2.0 0.00 0.00 0.00 62 1021.9
20260902220504 69 42 0.0 0.0 0.00 0.00 0.00 62 1021.8
20260902220004 69 42 0.0 0.0 0.00 0.00 0.00 62 1021.8
20260902215503 69 42 0.0 2.0 0.00 0.00 0.00 61 1021.8
20260902215003 69 42 0.0 0.0 0.00 0.00 0.00 61 1021.8
20260902214003 69 41 0.0 2.0 0.00 0.00 0.00 60 1021.7
20260902213503 69 41 1.0 3.0 0.00 0.00 0.00 60 1021.7
20260902213005 70 41 0.0 0.0 0.00 0.00 0.00 59 1021.8
20260902212503 70 41 0.0 0.0 0.00 0.00 0.00 58 1021.8
20260902212004 71 41 0.0 0.0 0.00 0.00 0.00 57 1021.8
20260902211504 71 41 0.0 0.0 0.00 0.00 0.00 57 1021.8
20260902211003 71 41 0.0 0.0 0.00 0.00 0.00 58 1021.8
20260902210505 71 41 0.0 3.0 0.00 0.00 0.00 58 1021.8
20260902210005 72 41 1.0 3.0 0.00 0.00 0.00 58 1021.7
20260902205504 72 41 0.0 0.0 0.00 0.00 0.00 58 1021.6
20260902204504 72 41 0.0 1.0 0.00 0.00 0.00 58 1021.7
20260902204004 73 41 0.0 2.0 0.00 0.00 0.00 57 1021.6
20260902203504 73 41 0.0 2.0 0.00 0.00 0.00 56 1021.5
20260902202503 75 41 0.0 0.0 0.00 0.00 0.00 55 1021.4
20260902202004 75 41 0.0 0.0 0.00 0.00 0.00 55 1021.4
20260902201504 75 41 0.0 0.0 0.00 0.00 0.00 54 1021.4
20260902201003 75 41 0.0 1.0 0.00 0.00 0.00 53 1021.3
20260902200503 76 41 2.0 5.0 0.00 0.00 0.00 52 1021.3
20260902200004 76 41 3.0 5.0 0.00 0.00 0.00 51 1021.1
20260902195504 77 41 1.0 5.0 0.00 0.00 0.00 50 1021.0
20260902195004 77 40 2.0 5.0 0.00 0.00 0.00 51 1021.0
20260902194503 78 40 1.0 5.0 0.00 0.00 0.00 50 1020.9
20260902194003 78 40 0.0 1.0 0.00 0.00 0.00 50 1020.8
20260902193504 79 40 1.0 3.0 0.00 0.00 0.00 49 1020.7
20260902193004 79 40 1.0 2.0 0.00 0.00 0.00 47 1020.6
20260902192504 79 40 0.0 3.0 0.00 0.00 0.00 45 1020.6
20260902192004 79 17 2.0 6.0 0.00 0.00 0.00 45 1020.5
20260902191503 80 246 1.0 3.0 0.00 0.00 0.00 46 1020.4
20260902191004 80 246 0.0 0.0 0.00 0.00 0.00 47 1020.4
20260902190504 80 246 0.0 0.0 0.00 0.00 0.00 46 1020.3
20260902190005 81 246 0.0 0.0 0.00 0.00 0.00 47 1020.3
20260902185004 82 246 0.0 0.0 0.00 0.00 0.00 46 1020.2
20260902184504 82 246 0.0 1.0 0.00 0.00 0.00 46 1020.2
20260902184003 82 246 1.0 6.0 0.00 0.00 0.00 47 1020.2
20260902183503 83 246 3.0 5.0 0.00 0.00 0.00 49 1020.2
20260902183005 83 246 4.0 7.0 0.00 0.00 0.00 48 1020.1
20260902182004 83 246 4.0 7.0 0.00 0.00 0.00 48 1020.0
20260902181504 84 246 6.0 12.0 0.00 0.00 0.00 48 1020.1
20260902181004 84 242 3.0 8.0 0.00 0.00 0.00 47 1020.1
20260902180504 84 254 3.0 8.0 0.00 0.00 0.00 48 1020.1
20260902175503 85 248 5.0 7.0 0.00 0.00 0.00 47 1020.0
20260902175004 85 250 3.0 7.0 0.00 0.00 0.00 47 1020.0
20260902174503 85 252 2.0 7.0 0.00 0.00 0.00 46 1020.0
20260902174003 85 245 5.0 7.0 0.00 0.00 0.00 46 1020.0
20260902173503 86 254 5.0 7.0 0.00 0.00 0.00 46 1019.9
20260902173005 86 245 6.0 9.0 0.00 0.00 0.00 45 1019.9
20260902172504 86 243 4.0 10.0 0.00 0.00 0.00 44 1019.9
20260902172003 86 237 4.0 8.0 0.00 0.00 0.00 44 1019.9